[[{"header":{"parameterUnit":"m.s-1","parameterCategory":1,"la1":30.2991,"la2":30.254,"lo1":-89.0895,"lo2":-89.0444,"dy":0.0017,"dx":0.0017,"nx":28,"ny":28,"refTime":"2023-08-14T21:00:00:Z","depth":0,"parameterNumber":2,"parameterNumberName":"U-component_of_WINDS"},"data":[0,0,0,0,0,0,0,0,0,0,0,0,0,0,0,0,0,0,0,0,0,0,0,0,0,0,0,0,0,0,0,0,0,0,0,0,0,0,0,0,0,0,0,0,0,0,0,0,0,0,0,0,0,0,0,0,0,0,1.517,1.5171,0,1.5276,1.5278,1.5279,1.5294,1.5293,1.5292,1.5291,1.5404,1.5408,1.5412,0,0,0,0,0,0,0,0,0,0,0,0,0,1.4982,1.4985,1.517,1.5171,1.5172,1.5276,1.5278,1.5279,1.5294,1.5293,1.5291,1.529,1.5402,1.5407,1.5412,0,0,0,0,0,0,0,0,0,0,0,0,0,1.5073,1.4986,1.5169,1.5192,1.5195,1.5276,1.5278,1.5279,1.5294,1.5293,1.5291,1.529,1.5401,1.5407,1.5413,1.5479,0,0,1.5431,1.5433,0,0,0,0,0,0,0,0,1.5068,1.508,1.5187,1.5191,1.5194,1.527,1.5253,1.5347,1.5294,1.5257,1.5291,1.5289,1.5361,1.537,1.5393,1.5484,1.5489,1.5431,1.5435,1.5437,1.5439,0,0,0,0,0,0,0,1.5062,1.5076,1.5212,1.5189,1.5193,1.5198,1.5209,1.5271,1.5316,1.526,1.5261,1.5273,1.5362,1.5388,1.5396,1.5491,1.5431,1.5436,1.544,1.5442,1.5641,1.5643,0,0,0,0,0,0,1.5051,1.507,1.5209,1.5215,1.5126,1.5202,1.5215,1.5247,1.5315,1.5324,1.5275,1.5274,1.5378,1.5389,1.54,1.5482,1.5437,1.5443,1.5446,1.564,1.5642,1.5644,0,0,0,0,0,0,1.5047,1.5063,1.5204,1.5143,1.5161,1.5207,1.5243,1.525,1.5275,1.5326,1.5335,1.5292,1.5377,1.5392,1.5459,1.5486,1.5445,1.5451,1.5638,1.564,1.5643,1.5646,0,0,0,0,0,0,1.5041,1.5061,1.5086,1.5143,1.5165,1.526,1.5245,1.5253,1.5285,1.5285,1.5345,1.5353,1.5377,1.545,1.5465,1.5493,1.5455,1.5635,1.5639,1.5642,1.5644,1.5648,1.5652,0,0,0,0,0,1.5034,1.5084,1.5088,1.5104,1.5197,1.5262,1.5274,1.53,1.5287,1.5313,1.5346,1.5351,1.5481,1.5457,1.5474,1.5504,1.5634,1.5638,1.5642,1.5642,1.5647,1.5652,0,0,0,0,0,0,1.503,1.5092,1.5097,1.5166,1.5208,1.5264,1.5298,1.5305,1.5353,1.5351,1.5382,1.5395,1.5461,1.549,1.5462,1.5572,1.5556,1.5564,1.555,1.5556,1.5561,1.5552,1.546,0,0,0,0,0,1.5037,1.5084,1.5136,1.5192,1.5213,1.5252,1.5281,1.5297,1.5343,1.5361,1.5399,1.5444,1.5494,1.5527,1.5577,1.5648,1.5661,1.5677,1.5682,1.5685,1.5691,1.573,1.5738,1.5656,1.5656,1.5656,0,0,1.5053,1.5092,1.512,1.5192,1.5227,1.5275,1.5267,1.5318,1.5355,1.5369,1.5434,1.5463,1.5516,1.5585,1.5617,1.5611,1.5716,1.569,1.5692,1.5697,1.5735,1.5742,1.5749,1.5659,1.5659,1.5658,0,0,1.5105,1.514,1.519,1.5224,1.5277,1.5302,1.5314,1.5368,1.5388,1.5453,1.5465,1.5509,1.5596,1.5632,1.5662,1.5728,1.5734,1.5743,1.5766,1.5803,1.581,1.5816,1.5838,1.5846,1.5749,1.5749,1.5749,0,1.5118,1.519,1.5215,1.5266,1.5297,1.5311,1.5363,1.5396,1.5462,1.5483,1.5475,1.5583,1.562,1.5697,1.5713,1.5737,1.5752,1.5736,1.5807,1.5813,1.5819,1.584,1.5849,1.575,1.575,1.575,1.5749,0,1.5203,1.5252,1.5287,1.5349,1.5384,1.5435,1.5469,1.5502,1.5515,1.5541,1.5607,1.5651,1.5709,1.5729,1.5743,1.5808,1.5803,1.58,1.5785,1.5826,1.5847,1.5856,1.5751,1.575,1.575,1.575,0,0,1.5255,1.533,1.5342,1.537,1.5428,1.5467,1.5519,1.5575,1.5602,1.5647,1.5691,1.5764,1.5762,1.5796,1.5814,1.5847,1.5894,1.584,1.5842,1.5848,1.5968,1.5969,1.5978,1.5899,1.5901,1.5903,1.5964,0,1.5314,1.5404,1.5429,1.5506,1.5553,1.5566,1.5611,1.5652,1.5678,1.5722,1.5751,1.5802,1.5795,1.5816,1.5849,1.5881,1.5919,1.5878,1.5941,1.5943,1.5926,1.599,1.5991,1.6047,1.5972,1.5974,1.5975,0,1.5394,1.5439,1.5521,1.5572,1.5592,1.5632,1.5685,1.5726,1.5773,1.579,1.5827,1.5841,1.5896,1.5878,1.5954,1.5925,1.5953,1.5973,1.5976,1.5982,1.5961,1.5997,1.6065,1.6073,1.5988,1.5987,1.5986,0,1.5423,1.5504,1.5563,1.5587,1.5649,1.5676,1.5704,1.5749,1.578,1.5827,1.5847,1.59,1.5929,1.5969,1.5998,1.5982,1.6071,1.6056,1.6086,1.6086,1.6104,1.6102,1.6177,1.6123,1.6123,1.6123,1.6123,0,1.5485,1.5534,1.5577,1.5613,1.5669,1.5697,1.5751,1.5779,1.5819,1.5862,1.5878,1.5917,1.5953,1.5997,1.602,1.6079,1.6093,1.6108,1.6113,1.6106,1.6103,1.6124,1.612,1.6125,1.6125,1.6124,1.6124,0,1.5526,1.5557,1.5622,1.5675,1.5689,1.5728,1.5774,1.581,1.5836,1.5889,1.5904,1.5945,1.5998,1.6031,1.6099,1.6114,1.6179,1.6183,1.6162,1.6165,1.6193,1.6189,1.6282,1.6295,1.6233,1.6234,1.6234,0,1.5563,1.5601,1.5658,1.5687,1.5714,1.5761,1.5792,1.5821,1.5854,1.591,1.5939,1.5993,1.6037,1.6122,1.6159,1.621,1.6216,1.6245,1.6224,1.6215,1.6215,1.6212,1.6216,1.6248,1.6248,1.6249,1.6249,0,1.5626,1.5639,1.5683,1.5734,1.5771,1.5812,1.5853,1.5876,1.5912,1.5948,1.6002,1.6036,1.6105,1.6158,1.6213,1.6242,1.6251,1.6255,1.6265,1.6258,1.6243,1.625,1.6171,1.6253,1.6253,1.6252,1.6252,1.6252,1.5666,1.57,1.5744,1.5794,1.5827,1.5865,1.5901,1.5931,1.5976,1.6033,1.6048,1.6104,1.615,1.6224,1.6254,1.6299,1.6295,1.6309,1.6313,1.6315,1.6315,1.6237,1.6309,1.6309,1.6309,1.6309,1.6309,0,1.5728,1.5757,1.5802,1.5858,1.5897,1.5902,1.5947,1.598,1.6029,1.607,1.6113,1.6174,1.6226,1.6266,1.6319,1.6347,1.6353,1.636,1.6358,1.6364,1.6317,1.6303,1.6354,1.6354,1.6354,1.6354,1.6354,1.6354,1.5765,1.5822,1.584,1.5915,1.5944,1.5999,1.6024,1.6059,1.6092,1.6159,1.6202,1.6227,1.6268,1.6324,1.6372,1.6382,1.6401,1.6407,1.6418,1.6373,1.6368,1.6363,1.635,1.6411,1.6411,1.6462,1.6462,1.6463]},{"header":{"parameterUnit":"m.s-1","parameterCategory":1,"la1":30.2991,"la2":30.254,"lo1":-89.0895,"lo2":-89.0444,"dy":0.0017,"dx":0.0017,"nx":28,"ny":28,"refTime":"2023-08-14T21:00:00:Z","depth":0,"parameterNumber":3,"parameterNumberName":"V-component_of_WINDS"},"data":[0,0,0,0,0,0,0,0,0,0,0,0,0,0,0,0,0,0,0,0,0,0,0,0,0,0,0,0,0,0,0,0,0,0,0,0,0,0,0,0,0,0,0,0,0,0,0,0,0,0,0,0,0,0,0,0,0,0,4.9216,4.9217,0,4.9227,4.9227,4.9227,4.9227,4.9227,4.9227,4.9227,4.9235,4.9235,4.9235,0,0,0,0,0,0,0,0,0,0,0,0,0,4.9191,4.9191,4.9216,4.9217,4.9217,4.9227,4.9227,4.9228,4.9227,4.9227,4.9227,4.9226,4.9235,4.9235,4.9235,0,0,0,0,0,0,0,0,0,0,0,0,0,4.9202,4.9191,4.9216,4.9218,4.9218,4.9227,4.9227,4.9228,4.9227,4.9227,4.9227,4.9226,4.9234,4.9235,4.9236,4.9243,0,0,4.9237,4.9237,0,0,0,0,0,0,0,0,4.9201,4.9203,4.9217,4.9218,4.9218,4.9226,4.9221,4.9233,4.9227,4.9224,4.9227,4.9226,4.9232,4.9232,4.9235,4.9244,4.9244,4.9237,4.9238,4.9238,4.9238,0,0,0,0,0,0,0,4.92,4.9202,4.9221,4.9218,4.9218,4.9216,4.9218,4.9223,4.9229,4.9224,4.9224,4.9225,4.9232,4.9234,4.9235,4.9244,4.9237,4.9238,4.9238,4.9238,4.9256,4.9256,0,0,0,0,0,0,4.92,4.9202,4.922,4.9221,4.9209,4.9217,4.9218,4.9223,4.9229,4.9229,4.9225,4.9225,4.9234,4.9234,4.9235,4.9243,4.9238,4.9238,4.9239,4.9256,4.9256,4.9256,0,0,0,0,0,0,4.9199,4.9202,4.922,4.9211,4.9213,4.9218,4.9223,4.9224,4.9226,4.923,4.923,4.9227,4.9233,4.9235,4.9241,4.9243,4.9238,4.9239,4.9256,4.9256,4.9256,4.9259,0,0,0,0,0,0,4.9199,4.9201,4.9206,4.9211,4.9214,4.9227,4.9223,4.9224,4.9228,4.9227,4.9232,4.9232,4.9233,4.924,4.9241,4.9244,4.9239,4.9256,4.9256,4.9256,4.9259,4.9259,4.926,0,0,0,0,0,4.9198,4.9206,4.9206,4.9208,4.922,4.9227,4.9228,4.923,4.9228,4.9231,4.9233,4.9232,4.9243,4.9241,4.9242,4.9245,4.9256,4.9256,4.9256,4.9259,4.9259,4.926,0,0,0,0,0,0,4.92,4.9207,4.9207,4.9218,4.9222,4.9227,4.9231,4.9231,4.9235,4.9235,4.9236,4.9237,4.9242,4.9244,4.9242,4.9251,4.9249,4.9249,4.925,4.925,4.9251,4.925,4.924,0,0,0,0,0,4.9202,4.9209,4.9214,4.9222,4.9224,4.9227,4.9231,4.9231,4.9235,4.9237,4.9239,4.9242,4.9246,4.9248,4.9252,4.9259,4.9259,4.9261,4.9262,4.9262,4.9263,4.9264,4.9264,4.9258,4.9258,4.9258,0,0,4.9206,4.921,4.9214,4.9223,4.9226,4.9231,4.9229,4.9235,4.9238,4.9238,4.9243,4.9245,4.9248,4.9254,4.9256,4.9255,4.9264,4.9263,4.9263,4.9263,4.9264,4.9265,4.9265,4.9258,4.9258,4.9258,0,0,4.9215,4.922,4.9227,4.923,4.9235,4.9236,4.9238,4.9242,4.9243,4.9249,4.9248,4.9251,4.9258,4.926,4.9261,4.9268,4.9267,4.9269,4.9272,4.9273,4.9274,4.9274,4.9275,4.9276,4.927,4.927,4.927,0,4.9219,4.9228,4.923,4.9236,4.9239,4.9238,4.9244,4.9246,4.9252,4.9253,4.9252,4.9259,4.9261,4.9266,4.9267,4.9269,4.9269,4.9269,4.9274,4.9274,4.9275,4.9275,4.9276,4.927,4.927,4.927,4.927,0,4.9232,4.9238,4.9242,4.9248,4.9251,4.9256,4.9257,4.926,4.926,4.9261,4.9265,4.9267,4.927,4.9272,4.9272,4.9276,4.9275,4.9274,4.9271,4.9275,4.9276,4.9277,4.927,4.927,4.927,4.927,0,0,4.9245,4.925,4.9251,4.9252,4.9256,4.926,4.9264,4.9268,4.9269,4.9272,4.9275,4.9279,4.9277,4.9279,4.9279,4.928,4.9283,4.9278,4.9278,4.9278,4.9286,4.9286,4.9287,4.9282,4.9282,4.9282,4.9285,0,4.9254,4.9262,4.9263,4.927,4.9274,4.9272,4.9276,4.9278,4.9278,4.928,4.928,4.9283,4.9281,4.9282,4.9283,4.9283,4.9284,4.9282,4.9283,4.9283,4.9282,4.9287,4.9289,4.9291,4.9286,4.9286,4.9286,0,4.9266,4.9269,4.9276,4.9277,4.9279,4.9282,4.9284,4.9287,4.9288,4.9288,4.9289,4.9288,4.929,4.9287,4.9289,4.9288,4.9288,4.9287,4.9287,4.9287,4.9284,4.9286,4.9292,4.9292,4.9286,4.9286,4.9286,0,4.9272,4.9278,4.9283,4.9284,4.9286,4.9288,4.9289,4.929,4.9291,4.9292,4.9292,4.9293,4.9294,4.9294,4.9292,4.9291,4.9294,4.9292,4.9293,4.9293,4.9293,4.9293,4.9298,4.9294,4.9294,4.9294,4.9294,0,4.9282,4.9286,4.9286,4.9289,4.9292,4.9292,4.9296,4.9296,4.9296,4.9298,4.9296,4.9297,4.9295,4.9296,4.9295,4.9295,4.9296,4.9295,4.9294,4.9295,4.9294,4.9294,4.9294,4.9294,4.9294,4.9294,4.9294,0,4.929,4.929,4.9295,4.9296,4.9296,4.9299,4.9299,4.93,4.93,4.9302,4.9302,4.9301,4.9301,4.93,4.93,4.9299,4.9299,4.9299,4.9299,4.9299,4.93,4.9299,4.9304,4.9304,4.9301,4.9301,4.9301,0,4.9296,4.9299,4.93,4.9301,4.9301,4.9304,4.9304,4.9303,4.9304,4.9304,4.9305,4.9305,4.9305,4.9305,4.9304,4.9303,4.9302,4.9304,4.9302,4.9302,4.9301,4.93,4.93,4.9304,4.9304,4.9304,4.9304,0,4.9305,4.9304,4.9306,4.9308,4.9309,4.931,4.931,4.9311,4.9309,4.931,4.931,4.931,4.931,4.9309,4.9308,4.9307,4.9305,4.9305,4.9305,4.9305,4.9305,4.9304,4.93,4.9305,4.9305,4.9305,4.9305,4.9305,4.9311,4.9313,4.9314,4.9315,4.9315,4.9315,4.9316,4.9316,4.9316,4.9316,4.9315,4.9315,4.9313,4.9311,4.931,4.9309,4.9308,4.9309,4.9309,4.9309,4.9308,4.9305,4.9309,4.9309,4.9309,4.9309,4.9309,0,4.932,4.9319,4.9321,4.9321,4.9322,4.932,4.932,4.932,4.932,4.932,4.9319,4.9319,4.9318,4.9315,4.9314,4.9313,4.9312,4.9313,4.9313,4.9312,4.931,4.931,4.9314,4.9314,4.9314,4.9314,4.9314,4.9314,4.9324,4.9326,4.9325,4.9327,4.9327,4.9327,4.9327,4.9326,4.9325,4.9325,4.9324,4.9323,4.9321,4.9318,4.9317,4.9316,4.9315,4.9316,4.9315,4.9313,4.9312,4.9312,4.9312,4.9316,4.9316,4.9317,4.9317,4.9317]}]]